CAPE
11 6 9 9 12 14 19 18 24 21 26 20 28 32 24 9 2 0 0 0 0 0 0 0 0 0 0 0 0 0 0 0 0 0 0 0 0 0 0 0 0 120 404 627 651
6 4 12 9 5 12 16 14 12 14 11 11 20 30 18 0 0 0 0 0 0 0 0 0 0 0 0 0 0 0 0 0 0 0 0 0 0 0 0 0 7 485 549 615 905
4 3 3 5 8 6 9 11 14 8 9 6 16 24 10 0 0 0 0 1 1 0 0 0 0 0 0 0 0 0 0 0 0 0 0 0 0 0 0 0 0 19 733 866 964
12 4 10 4 3 6 6 4 8 10 6 4 6 20 0 0 0 0 0 0 0 0 0 0 0 0 0 0 0 0 0 0 0 0 0 0 0 0 0 0 221 0 122 743 1007
3 11 3 5 3 3 1 3 4 4 5 3 6 8 0 0 0 0 0 0 0 0 0 0 0 0 0 0 0 0 0 0 0 0 0 0 0 0 0 0 0 0 0 235 900
8 3 5 3 3 1 2 2 1 1 6 5 9 0 0 0 0 0 0 0 0 0 0 0 0 0 0 0 0 0 0 0 0 0 0 0 0 0 0 0 0 0 0 37 482
10 4 2 1 4 1 2 1 1 2 4 1 7 0 0 0 0 0 0 0 0 0 0 0 0 0 0 0 0 0 0 0 0 0 0 0 0 0 0 0 0 0 0 536 589
11 10 3 2 1 1 1 2 0 1 1 0 4 0 0 0 0 0 0 0 0 0 0 0 0 1 3 0 0 0 9 7 0 0 0 0 0 0 0 0 0 0 0 740 821
7 11 3 1 1 0 1 1 1 0 0 1 0 0 0 0 0 0 0 0 0 0 0 0 0 33 7 28 12 44 1 0 0 0 0 0 0 0 0 0 0 0 0 800 1066
7 9 5 1 1 0 1 0 0 1 1 0 0 0 0 0 0 0 0 0 0 0 0 0 40 40 40 43 2 2 10 0 0 0 0 0 0 0 0 0 0 0 0 732 1226
4 7 5 2 1 1 1 0 0 0 1 0 0 0 0 0 0 0 0 0 0 6 0 18 63 40 41 10 18 46 58 0 0 0 0 0 0 0 0 0 0 0 0 665 1194
2 3 7 1 1 1 0 0 0 0 0 0 0 0 0 0 0 0 0 0 0 7 0 41 52 0 36 10 41 83 80 3 0 0 0 0 0 0 0 0 0 0 86 850 1135
2 3 5 3 3 0 0 0 0 0 0 0 0 0 0 0 1 0 0 0 0 1 0 21 31 24 71 30 3 11 74 45 2 0 0 0 0 0 0 0 0 0 0 754 1074
0 0 5 1 0 0 0 0 0 0 0 0 0 0 0 0 0 0 0 2 12 1 12 9 0 0 89 43 0 12 19 49 14 0 0 0 0 0 0 0 0 0 75 839 1124
0 0 6 0 0 0 0 0 0 0 0 0 0 0 0 0 0 0 0 9 12 17 12 19 22 12 34 22 0 15 8 45 35 9 0 0 0 0 0 0 0 0 8 631 1113
0 1 1 0 0 0 0 0 0 0 0 0 0 0 0 0 0 0 0 0 24 49 15 1 27 13 9 56 33 1 0 5 0 0 0 0 0 0 0 0 0 0 0 206 852
0 0 0 0 0 0 0 0 0 0 0 0 0 0 0 2 2 0 0 0 3 22 39 28 25 41 2 7 91 90 68 71 17 0 0 0 0 0 0 0 0 0 0 185 463
0 0 0 0 0 0 0 0 0 0 4 4 0 5 34 0 0 1 0 0 0 0 19 24 13 2 6 27 17 17 44 9 1 0 0 0 0 0 0 0 0 0 0 203 641
0 0 0 0 0 0 0 0 0 0 9 15 0 2 27 15 2 15 0 0 0 0 18 36 48 0 0 4 45 17 5 0 0 0 0 0 0 0 0 0 0 0 47 171 621
0 0 0 0 0 0 0 0 0 0 7 33 16 8 10 44 15 9 3 0 8 0 1 13 71 0 0 0 0 13 4 2 13 0 0 0 0 0 0 0 34 110 81 263 672
0 0 0 0 0 0 0 0 0 0 19 39 34 11 26 18 18 19 24 37 18 7 0 0 97 1 0 5 25 0 0 0 2 0 0 0 0 0 91 168 52 0 23 370 737
0 0 0 0 0 0 0 0 0 0 0 14 22 19 51 7 6 5 5 12 0 2 85 0 56 44 7 0 9 1 0 0 0 0 0 0 0 109 182 103 77 78 25 0 346
0 0 0 0 0 0 0 0 0 0 0 0 0 13 25 2 11 13 10 3 1 2 76 184 232 15 2 0 0 0 0 0 0 0 0 0 0 0 142 156 72 94 102 11 0
0 0 0 0 0 0 2 0 0 0 0 0 0 0 0 0 3 6 18 1 0 0 5 77 109 83 47 9 0 0 1 5 8 12 0 0 0 0 103 186 150 234 160 2 0
0 0 0 0 0 0 0 0 0 2 0 0 0 0 1 15 5 9 0 0 0 1 0 0 152 162 142 128 5 0 0 0 0 0 0 0 0 209 144 133 45 100 121 2 12
0 0 0 0 0 0 0 0 0 4 4 0 0 1 2 17 24 14 14 0 2 0 0 0 9 20 29 124 95 0 0 0 0 0 0 8 10 241 21 8 0 1 39 277 281
0 0 1 0 0 0 0 0 0 10 1 1 10 10 4 0 0 0 0 0 0 1 2 1 12 88 69 7 0 0 0 0 0 0 0 6 46 170 0 3 4 3 3 4 3
CIN
-0 -0 -0 -0 -0 -0 -0 -0 -1 -0 -1 -1 -1 -1 -1 -0 -0 -0 -0 -0 -0 -0 -0 -0 -0 -0 -0 -0 -0 -0 -0 -0 -0 -0 -0 -0 -0 -0 -0 -0 -0 -146 -186 -231 -373
-0 -0 -0 -0 -0 -0 -0 -0 -0 -0 -0 -0 -0 -0 -0 -0 -0 -0 -0 -0 -0 -0 -0 -0 -0 -0 -0 -0 -0 -0 -0 -0 -0 -0 -0 -0 -0 -0 -0 -0 -81 -100 -250 -329 -308
-0 -0 -0 -0 -0 -0 -0 -0 -0 -0 -0 -0 -0 -0 -0 -0 -0 -0 -0 -2 -2 -0 -0 -0 -0 -0 -0 -0 -0 -0 -0 -0 -0 -0 -0 -0 -0 -0 -0 -0 -0 -163 -166 -258 -275
-0 -0 -0 -0 -0 -0 -0 -0 -0 -0 -0 -0 -0 -0 -0 -0 -0 -0 -0 -0 -0 -0 -0 -0 -0 -0 -0 -0 -0 -0 -0 -0 -0 -0 -0 -0 -0 -0 -0 -0 -115 -0 -265 -247 -262
-0 -0 -0 -0 -0 -0 -0 -0 -0 -0 -0 -0 -0 -0 -0 -0 -0 -0 -0 -0 -0 -0 -0 -0 -0 -0 -0 -0 -0 -0 -0 -0 -0 -0 -0 -0 -0 -0 -0 -0 -0 -0 -0 -291 -241
-0 -0 -0 -0 -0 -0 -0 -0 -0 -1 -0 -0 -0 -0 -0 -0 -0 -0 -0 -0 -0 -0 -0 -0 -0 -0 -0 -0 -0 -0 -0 -0 -0 -0 -0 -0 -0 -0 -0 -0 -0 -0 -0 -257 -261
-0 -0 -0 -0 -0 -0 -0 -0 -0 -0 -0 -0 -0 -0 -0 -0 -0 -0 -0 -0 -0 -0 -0 -0 -0 -0 -0 -0 -0 -0 -0 -0 -0 -0 -0 -0 -0 -0 -0 -0 -0 -0 -7 -167 -247
-0 -0 -0 -0 -0 -0 -0 -0 -0 -0 -0 -0 -0 -0 -0 -0 -0 -0 -0 -0 -0 -0 -0 -0 -0 -3 -10 -0 -0 -0 -0 -0 -0 -0 -0 -0 -0 -0 -0 -0 -0 -0 -0 -150 -214
-0 -0 -0 -0 -0 -0 -0 -0 -0 -0 -0 -0 -0 -0 -0 -0 -0 -0 -0 -0 -0 -0 -0 -0 -0 -2 -11 -0 -0 -0 -0 -0 -0 -0 -0 -0 -0 -0 -0 -0 -0 -0 -0 -128 -156
-0 -0 -0 -0 -0 -0 -0 -0 -0 -0 -0 -0 -0 -0 -0 -0 -0 -0 -0 -0 -0 -0 -0 -0 -0 -0 -0 -0 -0 -0 -0 -0 -0 -0 -0 -0 -0 -0 -0 -0 -0 -0 -0 -120 -133
-0 -0 -0 -0 -0 -0 -0 -0 -0 -0 -0 -0 -0 -0 -0 -0 -0 -0 -0 -0 -0 -7 -0 -0 -0 -0 -29 -3 -0 -0 -0 -0 -0 -0 -0 -0 -0 -0 -0 -0 -0 -0 -0 -114 -112
-0 -0 -0 -0 -0 -0 -0 -0 -0 -0 -0 -0 -0 -0 -0 -0 -6 -0 -0 -0 -4 -2 -0 -0 -0 -4 -8 -0 -0 -2 -0 -0 -0 -0 -0 -0 -0 -0 -0 -0 -0 -0 -163 -104 -106
-0 -0 -0 -0 -0 -0 -0 -0 -0 -0 -0 -0 -0 -0 -0 -0 -4 -0 -0 -0 -1 -5 -0 -0 -4 -1 -0 -0 -16 -30 -0 -0 -2 -0 -0 -0 -0 -0 -0 -0 -0 -0 -0 -131 -171
-0 -0 -0 -0 -0 -0 -0 -0 -0 -0 -0 -0 -0 -0 -0 -0 -0 -0 -0 -8 -1 -1 -4 -0 -0 -0 -0 -0 -0 -62 -9 -8 -8 -0 -0 -0 -0 -0 -0 -0 -0 -0 -222 -146 -153
-0 -0 -0 -0 -0 -0 -0 -0 -0 -0 -0 -0 -0 -0 -0 -0 -0 -0 -0 -12 -0 -0 -4 -0 -1 -0 -0 -1 -0 -27 -24 -14 -11 -5 -0 -0 -0 -0 -0 -0 -0 -0 -93 -174 -162
-0 -0 -0 -0 -0 -0 -0 -0 -0 -0 -0 -0 -0 -0 -0 -0 -0 -0 -0 -1 -14 -3 -20 -4 -6 -21 -32 -9 -13 -1 -0 -26 -9 -0 -0 -0 -0 -0 -0 -0 -0 -0 -0 -268 -184
-0 -0 -0 -0 -0 -0 -0 -0 -0 -0 -0 -0 -0 -15 -0 -8 -9 -0 -0 -0 -5 -0 -1 -27 -15 -9 -34 -12 -22 -1 -1 -0 -0 -0 -0 -0 -0 -0 -0 -0 -0 -0 -0 -281 -273
-0 -0 -0 -0 -0 -0 -0 -0 -0 -0 -0 -0 -0 -41 -2 -0 -0 -0 -0 -0 -0 -0 -0 -0 -0 -6 -46 -0 -16 -3 -6 -0 -0 -0 -0 -0 -0 -0 -0 -0 -0 -0 -0 -201 -248
-0 -0 -0 -0 -0 -0 -0 -0 -0 -0 -0 -0 -0 -0 -0 -0 -0 -0 -0 -0 -14 -5 -3 -12 -5 -0 -0 -13 -1 -10 -10 -0 -1 -0 -0 -0 -0 -0 -0 -0 -0 -0 -197 -168 -225
-0 -0 -0 -0 -0 -0 -0 -0 -0 -0 -11 -2 -0 -0 -0 -0 -0 -0 -0 -0 -0 -1 -4 -12 -4 -0 -0 -0 -3 -2 -11 -1 -31 -0 -0 -0 -0 -0 -0 -0 -194 -121 -139 -139 -220
-0 -0 -0 -0 -0 -0 -0 -0 -0 -0 -11 -0 -0 -0 -0 -0 -0 -0 -0 -0 -6 -0 -0 -0 -7 -1 -0 -39 -1 -0 -0 -0 -26 -0 -0 -0 -0 -0 -99 -142 -158 -0 -62 -149 -199
-0 -0 -0 -0 -0 -0 -0 -0 -0 -0 -0 -8 -2 -0 -0 -0 -0 -0 -0 -0 -0 -0 -2 -7 -21 -14 -37 -0 -17 -2 -0 -0 -0 -0 -0 -0 -0 -102 -104 -168 -230 -235 -305 -0 -249
-0 -0 -0 -0 -0 -0 -0 -0 -0 -0 -0 -0 -0 -0 -0 -0 -0 -0 -0 -2 -0 -0 -0 -1 -10 -3 -0 -0 -0 -0 -0 -0 -7 -0 -0 -0 -0 -0 -130 -143 -229 -268 -268 -368 -0
-0 -0 -0 -0 -0 -0 -0 -0 -0 -0 -0 -0 -0 -0 -0 -0 -0 -0 -0 -0 -0 -0 -6 -22 -8 -12 -8 -0 -0 -0 -10 -22 -13 -3 -0 -0 -0 -0 -129 -122 -189 -224 -299 -84 -0
-0 -0 -0 -0 -0 -0 -0 -0 -0 -0 -0 -0 -0 -0 -0 -0 -0 -0 -0 -0 -0 -0 -0 -0 -0 -11 -9 -26 -15 -0 -0 -0 -0 -0 -0 -0 -0 -69 -141 -166 -285 -276 -326 -395 -443
-0 -0 -0 -0 -0 -0 -0 -0 -0 -0 -0 -0 -0 -0 -0 -0 -0 -0 -0 -0 -0 -0 -0 -0 -0 -0 -54 -11 -22 -0 -0 -0 -0 -0 -23 -131 -118 -129 -262 -350 -0 -0 -371 -237 -249
-0 -0 -0 -0 -0 -0 -0 -0 -0 -0 -0 -0 -0 -0 -0 -0 -0 -0 -0 -0 -0 -0 -0 -0 -3 -5 -3 -38 -0 -0 -0 -0 -0 -0 -0 -91 -93 -144 -0 -0 -0 -0 -0 -0 -0
Wind_Speed
19 19 18 17 17 15 17 15 16 14 14 13 14 13 11 12 13 10 9 8 5 10 7 9 5 2 3 5 4 3 9 16 21 21 11 8 12 8 8 18 7 7 1 2 20
19 19 18 18 17 16 16 16 15 15 13 12 13 12 11 11 12 10 7 10 11 10 4 3 3 5 6 6 7 11 14 20 6 13 9 12 16 11 8 13 15 8 5 13 19
20 19 19 18 17 16 16 16 16 14 13 12 12 12 10 7 3 3 5 8 6 6 4 6 1 2 9 6 11 11 16 15 11 13 12 12 9 9 11 13 13 15 12 17 17
20 20 18 18 17 16 16 15 15 14 13 12 11 10 8 2 2 3 5 3 5 2 9 6 5 6 6 14 10 11 16 11 15 6 6 9 4 5 11 9 7 9 8 15 19
20 20 19 18 17 16 15 14 14 14 12 10 10 6 3 3 4 1 4 6 4 5 8 8 9 8 9 4 13 15 13 16 16 11 7 8 11 7 12 13 7 4 4 16 18
21 20 19 18 17 16 15 14 14 13 10 8 6 3 1 3 3 1 1 3 3 2 8 9 8 8 5 6 11 3 12 18 19 19 11 10 11 6 16 12 12 7 6 12 18
20 20 20 18 17 16 15 14 13 12 7 5 1 2 2 8 2 6 5 3 4 5 7 9 10 10 6 5 6 12 9 12 24 16 10 6 16 26 16 13 9 5 3 9 16
20 19 20 19 18 16 15 14 14 8 4 1 3 1 7 3 6 12 5 3 5 8 9 4 6 10 4 3 5 13 13 13 17 23 11 10 27 21 18 14 18 11 4 9 17
21 21 21 19 19 17 15 14 10 3 4 6 2 1 8 5 5 4 7 2 3 4 5 5 6 5 6 8 11 10 15 22 12 25 15 21 13 14 15 13 20 13 8 10 12
22 21 20 20 18 16 14 8 3 5 3 4 2 4 6 5 4 3 3 2 2 5 4 5 5 4 10 12 17 16 20 14 24 14 30 22 20 9 4 13 19 15 11 12 13
24 21 22 20 17 14 7 2 3 3 3 7 8 7 11 7 6 3 3 4 3 5 5 12 8 7 16 16 13 11 14 17 18 12 20 30 17 21 10 8 14 14 14 14 14
25 24 22 19 16 12 4 2 3 4 9 9 11 10 10 4 4 2 6 3 3 5 8 6 7 11 15 17 19 14 9 13 13 25 15 18 21 17 25 10 12 12 14 16 16
25 24 22 19 12 4 3 4 2 2 4 7 5 5 3 8 5 5 8 3 6 5 7 10 2 3 16 15 21 18 9 8 4 18 15 13 16 17 21 19 13 9 13 17 21
26 25 21 18 3 1 4 3 4 1 3 3 3 3 4 4 5 4 4 4 4 4 4 7 3 8 15 15 19 15 18 10 7 8 11 15 6 17 17 15 14 13 13 15 18
28 25 21 4 2 2 3 4 3 1 2 15 4 2 3 6 7 5 3 4 8 5 4 3 10 14 7 15 18 11 5 8 7 4 6 12 5 9 11 17 19 17 15 15 16
30 26 14 3 1 2 3 2 1 2 4 6 6 11 12 2 2 3 3 4 3 6 11 12 4 4 5 9 16 8 12 5 3 4 9 12 11 11 16 27 20 15 14 14 16
33 26 3 1 5 2 2 0 2 5 6 10 15 15 15 6 4 2 3 6 5 4 2 2 9 5 5 3 8 15 8 5 5 6 5 7 9 4 17 11 16 16 14 15 16
32 13 1 2 3 3 1 2 3 3 7 13 15 19 3 9 7 6 6 5 6 7 6 2 5 13 14 10 8 13 7 2 6 7 9 5 7 3 2 8 10 14 13 15 16
21 3 2 10 1 2 2 3 2 6 10 12 15 8 9 2 3 8 4 6 3 8 3 4 1 5 10 6 11 7 7 1 1 1 8 6 2 3 4 6 6 11 7 11 15
4 3 6 13 1 1 2 3 4 5 11 8 8 7 17 13 11 10 4 2 5 2 7 4 2 5 7 5 2 6 8 6 2 7 7 5 2 5 3 6 4 6 11 8 9
3 2 8 12 2 5 3 4 7 8 12 6 11 11 10 15 16 13 5 6 3 10 3 4 5 4 6 9 10 6 6 2 2 3 1 6 4 2 4 6 5 3 1 5 10
4 2 8 7 5 3 5 10 7 9 13 6 7 6 9 17 11 9 4 9 20 13 3 3 5 4 12 2 12 10 6 7 2 3 3 2 5 5 4 5 7 8 9 4 4
4 3 4 5 6 6 8 6 5 10 10 9 7 9 12 10 9 11 12 9 14 16 11 4 4 2 7 7 4 9 5 3 4 1 1 2 4 7 5 5 5 7 8 9 5
3 6 4 5 3 5 7 4 10 11 7 12 8 6 15 13 10 11 12 7 17 18 13 4 4 5 2 2 4 7 9 8 3 2 5 1 1 6 2 6 7 7 7 8 8
5 3 2 6 6 9 4 5 9 10 8 9 5 13 15 9 18 1 11 17 17 10 10 5 5 8 6 4 4 8 10 10 6 2 4 2 6 3 4 6 7 8 3 3 7
4 5 2 3 6 8 4 4 8 10 9 10 7 18 17 12 15 22 15 12 10 8 12 11 3 3 7 7 7 10 12 11 5 3 6 2 4 4 4 5 8 10 9 6 7
1 0 2 2 4 5 4 7 10 15 9 10 15 19 16 16 15 21 20 18 18 12 8 7 5 5 2 5 6 7 12 11 8 8 6 6 1 10 4 7 5 7 11 11 12
Wind_Direction
347 344 339 336 333 333 329 327 323 320 315 316 319 320 306 316 313 296 260 234 215 265 295 310 271 226 214 225 198 161 229 224 221 222 227 221 212 194 229 231 218 192 227 80 146
346 342 337 336 336 332 330 330 326 322 319 320 319 323 325 329 311 284 240 229 243 275 218 249 232 198 185 218 201 207 226 224 232 231 233 243 220 202 205 200 206 195 100 130 149
346 342 339 335 334 332 332 333 331 327 322 318 321 326 328 336 283 144 178 184 266 278 229 171 298 220 219 197 206 218 235 229 236 235 231 233 221 228 218 216 213 210 166 158 163
343 341 338 333 330 328 327 329 328 331 324 317 319 323 331 323 14 203 160 334 327 341 151 173 165 190 226 222 209 251 236 246 228 239 229 223 310 247 231 212 129 108 142 171 175
344 340 336 333 327 325 324 324 325 326 325 313 311 344 352 314 255 280 307 332 284 162 167 179 184 190 211 222 226 239 244 234 242 245 286 298 244 258 263 253 257 284 205 189 187
342 340 335 330 325 322 319 316 316 319 316 305 331 85 26 278 95 103 356 302 261 234 167 173 203 198 225 229 219 217 234 251 235 242 260 270 269 255 242 250 252 252 241 203 190
338 340 334 329 324 320 315 312 312 312 299 296 336 92 254 245 300 303 283 230 220 211 203 200 190 196 192 258 248 254 264 240 235 228 238 235 252 234 234 264 274 259 271 182 186
337 338 334 327 322 319 317 316 311 300 251 200 136 131 260 247 296 289 248 243 231 238 235 284 203 212 215 292 237 225 238 237 220 225 225 207 234 230 232 251 257 257 226 184 178
337 337 334 327 322 320 320 320 309 178 155 147 137 306 270 311 265 275 202 241 147 178 215 243 190 211 180 221 219 200 219 217 227 217 220 216 242 236 244 233 244 239 218 184 168
337 336 334 327 323 321 323 314 63 120 137 177 210 255 244 338 298 268 174 189 205 129 149 202 174 210 216 200 211 204 217 216 220 200 213 221 229 265 297 221 232 221 208 188 177
337 335 333 327 323 318 316 160 224 184 186 251 282 269 291 315 278 199 164 167 184 203 203 196 211 216 209 212 232 210 210 228 221 217 211 220 217 234 263 230 233 211 196 188 184
335 335 333 330 323 314 194 250 249 307 302 247 257 258 272 247 295 255 158 225 224 246 190 182 227 245 237 210 230 242 252 206 224 218 212 210 227 226 244 252 238 204 183 181 174
334 333 333 330 327 144 243 245 349 206 299 293 220 245 250 194 261 274 186 203 261 266 214 233 199 171 253 206 221 233 255 213 289 190 203 193 216 219 234 242 257 217 210 187 182
333 334 334 329 176 133 261 309 168 96 306 291 269 255 187 254 258 194 209 251 235 272 253 243 232 264 251 219 216 233 212 248 266 189 193 202 187 214 209 214 227 212 196 191 186
331 333 334 291 346 250 0 121 98 164 326 328 290 102 273 266 315 185 178 192 254 249 229 315 176 190 232 211 205 236 211 230 283 257 210 192 251 161 205 215 215 207 191 192 190
332 333 340 98 218 276 132 108 212 244 343 336 312 313 329 246 240 297 198 205 268 258 220 250 217 175 238 217 219 137 241 255 220 225 206 179 226 180 194 209 207 202 183 187 192
332 335 336 221 345 66 168 194 302 42 324 321 322 328 324 305 285 259 256 220 237 295 248 184 205 191 207 234 223 217 185 149 161 188 186 155 206 332 203 208 211 205 183 182 185
330 332 101 247 291 163 201 275 6 359 314 318 318 314 289 25 318 312 283 278 212 229 283 267 183 178 194 200 188 194 196 177 160 182 157 139 212 112 260 207 216 211 203 175 182
328 354 30 346 84 186 292 2 328 329 324 330 323 327 342 6 229 319 250 292 296 198 245 300 98 185 195 183 178 168 207 339 64 31 167 169 196 161 84 135 177 186 192 183 179
345 336 20 341 132 260 34 312 303 305 318 319 334 337 322 345 323 326 274 108 343 329 272 314 290 185 184 183 216 226 147 196 197 167 171 146 176 98 55 68 77 170 200 201 181
357 38 349 348 257 37 58 311 306 325 337 317 315 308 322 334 325 323 278 55 123 334 227 296 285 129 179 209 187 167 188 83 43 324 142 138 134 67 356 339 335 330 270 219 199
335 48 344 336 46 20 355 326 302 335 343 303 302 300 327 332 321 316 332 355 320 333 339 232 300 197 204 255 221 203 188 208 266 144 50 9 118 108 52 14 343 327 313 275 215
7 307 351 6 48 359 336 322 305 350 326 340 302 333 350 326 325 322 332 336 325 345 356 353 246 168 145 131 159 209 182 147 110 36 48 6 113 163 56 30 14 332 304 287 210
356 359 355 39 72 6 345 346 338 335 309 341 291 356 347 324 322 305 336 335 341 332 350 210 283 329 347 119 168 187 188 184 190 162 143 241 220 203 2 29 10 346 307 259 209
10 63 43 337 2 343 328 309 332 349 337 316 293 357 345 302 317 140 342 338 335 0 0 33 3 338 316 255 254 204 181 175 203 126 198 183 232 77 37 31 11 4 13 177 187
13 350 359 293 302 325 344 346 322 331 322 308 299 325 316 284 286 300 313 326 282 326 346 346 4 305 308 340 216 214 192 189 186 182 254 238 245 130 93 77 41 30 37 100 137
41 180 293 308 338 317 352 331 310 321 295 271 306 309 297 295 308 292 281 266 256 282 305 302 327 342 313 16 142 221 215 203 193 206 217 217 292 162 109 77 41 59 63 51 47